CZ-6A DEB, 54916

Orbit data source: Space-Track

CZ-6A DEB, 54916 is space debris in SSO originally from a launch on Fri, 11 Nov 2022 UTC launched from the Taiyaun Space Center, China (TSC). Debris objects in space refer to the collection of defunct objects orbiting the Earth. Examples of debris include non-operational satellites, rocket bodies, and fragments generated from explosions, collisions, or faulty payload assembly.

Loading next visibility...
Identifier
54916, 2022-151RD
Orbit
SSO
Country
Flag of CNCN / PRC
Related business
Manufacturer
SAST
Mission
Spacecraft
Bus & Motor
Unknown
Mass
Unknown
Launch date (UTC)
2022-11-11 (3 years ago)
Launch vehicle
Unknown
Launch site
Taiyaun Space Center, China (TSC)
Object type
Payload
Rocket body
Debris
Shape & HBR
Unknown shape, 0.1 m
Radar Cross Section
Small (<0.1 m²)

Expand to show TLE details & history
Last TLE update: 21 hours ago

TLE from 21 hours ago
0 CZ-6A DEB
1 54916U 22151RD  25349.99705842  .00000568  00000-0  34306-3 0  9991
2 54916  98.8467 348.3748 0050761 142.1401 218.3357 14.09873874155706
Epoch: 2025-12-15T23:55Z
TLE epoch observation values (Epoch: 2025-12-15T23:55:45.847Z)
Latitude
-0°
Longitude
-95.45383°
Altitude
891.596 km
Speed
7.392 km/s
True Right ascension
23h 13m 29s
True Declination
0° 00' 00"
Sunlit
Object was in daylight at epoch
Visualization orbit readout
Latitude
Unknown
Longitude
Unknown
Altitude
Unknown
Speed
Unknown
Apparent Right ascension
Unknown
Apparent Declination
Unknown
Sunlit
N/A
Visualization observer readout
Local Sidereal Time
19:42:26
Azimuth
Unknown
Elevation
Unknown
Doppler factor
Unknown
Orbital elements
Apogee altitude
893.708 km
Perigee altitude
820.256 km
Semi-major axis
7,235.119 km
Eccentricity
0.00508
Inclination
98.8467°
RAAN
348.3748°
Arg. of periapsis
142.1401°
True anomaly
217.97669°
Mean anomaly
218.3357°
Eccentric anomaly
218.15602°
Mean motion
3.52675 °/min
Orbital period
102.08 mins
BSTAR
0.00034306
Loading maneuver chart data...
Computing Atmospheric mass density...
Loading historical data...
Loading historical data...
Loading historical data...
Loading historical data...
Loading historical data...
Loading historical data...
Loading historical data...

Documentation

Showing up to 5 results
|